Location: Buchloe
(48.0161°N, 10.7316°E)
Time: 03:25:12
(UTC+02:00)

ISS - Pass Details

Date: 11 July 2025
Orbit: 413 x 417 km, 51.6° (Epoch: 12 July)

Event Time Altitude Azimuth Distance (km) Brightness Sun altitude
Rises 01:59:46 0° 291° (WNW) 2,356 0.2 -19.4°
Reaches altitude 10° 02:01:53 10° 294° (WNW) 1,492 -0.8 -19.3°
Maximum altitude 02:05:12 66° 17° (NNE) 457 -3.4 -19.2°
Drops below altitude 10° 02:08:32 10° 102° (ESE) 1,490 -1.0 -19.1°
Sets 02:10:39 0° 105° (ESE) 2,352 0.0 -19.1°
